Time,TemperatureF,DewpointF,PressureIn,WindDirection,WindDirectionDegrees,WindSpeedMPH,WindSpeedGustMPH,Humidity,HourlyPrecipIn,Conditions,Clouds,dailyrainin,SoftwareType,DateUTC
2013-05-30 00:00:00,72.2,67.8,30.01,SE,129,0.0,0.0,86,0.00,,SKC,0.00,VWS V14.01,2013-05-30 05:00:00,
2013-05-30 00:01:00,72.1,67.7,30.01,SE,129,0.0,0.0,86,0.00,,SKC,0.00,VWS V14.01,2013-05-30 05:01:00,
2013-05-30 00:06:00,72.0,67.6,30.01,SE,129,0.0,1.0,86,0.00,,SKC,0.00,VWS V14.01,2013-05-30 05:06:00,
2013-05-30 00:11:00,71.8,67.4,30.01,SE,129,0.0,1.0,86,0.00,,SKC,0.00,VWS V14.01,2013-05-30 05:11:00,
2013-05-30 00:16:00,71.6,66.9,30.01,SE,129,0.0,1.0,85,0.00,,SKC,0.00,VWS V14.01,2013-05-30 05:16:00,
2013-05-30 00:21:00,71.6,66.5,30.01,SE,129,0.0,1.0,84,0.00,,SKC,0.00,VWS V14.01,2013-05-30 05:21:00,
2013-05-30 00:26:00,71.9,66.5,30.01,SE,129,0.0,1.0,83,0.00,,SKC,0.00,VWS V14.01,2013-05-30 05:26:00,
2013-05-30 00:30:00,72.0,66.6,30.01,SE,129,0.0,1.0,83,0.00,,SKC,0.00,VWS V14.01,2013-05-30 05:30:00,
2013-05-30 00:31:00,72.0,66.6,30.01,SE,129,0.0,1.0,83,0.00,,SKC,0.00,VWS V14.01,2013-05-30 05:31:00,
2013-05-30 00:36:00,72.0,66.6,30.01,SE,129,0.0,1.0,83,0.00,,SKC,0.00,VWS V14.01,2013-05-30 05:36:00,
2013-05-30 00:41:00,72.0,66.6,30.01,SE,129,0.0,1.0,83,0.00,,SKC,0.00,VWS V14.01,2013-05-30 05:41:00,
2013-05-30 00:46:00,72.0,66.6,30.01,SE,129,0.0,1.0,83,0.00,,SKC,0.00,VWS V14.01,2013-05-30 05:46:00,
2013-05-30 00:51:00,72.0,66.6,30.01,SE,129,0.0,1.0,83,0.00,,SKC,0.00,VWS V14.01,2013-05-30 05:51:00,
2013-05-30 00:56:00,72.0,66.6,30.01,SE,129,0.0,1.0,83,0.00,,SKC,0.00,VWS V14.01,2013-05-30 05:56:00,
2013-05-30 01:00:00,72.0,66.2,30.01,SE,129,0.0,1.0,82,0.00,,SKC,0.00,VWS V14.01,2013-05-30 06:00:00,
2013-05-30 01:01:00,72.0,66.2,30.01,SE,129,0.0,0.0,82,0.00,,SKC,0.00,VWS V14.01,2013-05-30 06:01:00,
2013-05-30 01:06:00,72.0,66.2,30.01,SE,129,0.0,0.0,82,0.00,,SKC,0.00,VWS V14.01,2013-05-30 06:06:00,
2013-05-30 01:11:00,71.9,66.5,30.01,SE,129,0.0,0.0,83,0.00,,SKC,0.00,VWS V14.01,2013-05-30 06:11:00,
2013-05-30 01:16:00,72.0,66.2,30.01,SE,129,2.0,2.0,82,0.00,,SKC,0.00,VWS V14.01,2013-05-30 06:16:00,
2013-05-30 01:21:00,72.2,66.4,30.01,SE,129,0.0,3.0,82,0.00,,SKC,0.00,VWS V14.01,2013-05-30 06:21:00,
2013-05-30 01:26:00,72.2,66.4,30.01,SE,129,2.0,4.0,82,0.00,,SKC,0.00,VWS V14.01,2013-05-30 06:26:00,
2013-05-30 01:30:00,72.3,66.5,30.00,SE,129,1.0,5.0,82,0.00,,SKC,0.00,VWS V14.01,2013-05-30 06:30:00,
2013-05-30 01:31:00,72.4,66.6,30.01,SE,129,5.0,5.0,82,0.00,,SKC,0.00,VWS V14.01,2013-05-30 06:31:00,
2013-05-30 01:36:00,72.4,66.6,30.00,SE,129,2.0,5.0,82,0.00,,SKC,0.00,VWS V14.01,2013-05-30 06:36:00,
2013-05-30 01:41:00,72.6,66.8,30.00,SE,129,1.0,6.0,82,0.00,,SKC,0.00,VWS V14.01,2013-05-30 06:41:00,
2013-05-30 01:46:00,72.8,67.0,30.00,SE,129,4.0,6.0,82,0.00,,SKC,0.00,VWS V14.01,2013-05-30 06:46:00,
2013-05-30 01:51:00,72.9,67.1,30.00,SE,129,1.0,6.0,82,0.00,,SKC,0.00,VWS V14.01,2013-05-30 06:51:00,
2013-05-30 01:56:00,73.0,67.5,30.00,SE,129,2.0,6.0,83,0.00,,SKC,0.00,VWS V14.01,2013-05-30 06:56:00,
2013-05-30 02:00:00,73.1,67.6,30.00,SE,129,2.0,6.0,83,0.00,,SKC,0.00,VWS V14.01,2013-05-30 07:00:00,
2013-05-30 02:01:00,73.1,67.6,30.00,SE,129,2.0,2.0,83,0.00,,SKC,0.00,VWS V14.01,2013-05-30 07:01:00,
2013-05-30 02:06:00,73.2,67.7,30.00,SE,129,1.0,6.0,83,0.00,,SKC,0.00,VWS V14.01,2013-05-30 07:06:00,
2013-05-30 02:11:00,73.3,67.8,30.00,SE,129,0.0,6.0,83,0.00,,SKC,0.00,VWS V14.01,2013-05-30 07:11:00,
2013-05-30 02:16:00,73.4,67.9,30.00,SE,129,0.0,6.0,83,0.00,,SKC,0.00,VWS V14.01,2013-05-30 07:16:00,
2013-05-30 02:21:00,73.4,68.3,30.00,SE,129,1.0,6.0,84,0.00,,SKC,0.00,VWS V14.01,2013-05-30 07:21:00,
2013-05-30 02:26:00,73.5,68.4,30.00,SE,129,0.0,6.0,84,0.00,,SKC,0.00,VWS V14.01,2013-05-30 07:26:00,
2013-05-30 02:30:00,73.5,68.4,29.99,SE,129,0.0,6.0,84,0.00,,SKC,0.00,VWS V14.01,2013-05-30 07:30:00,
2013-05-30 02:31:00,73.5,68.4,29.99,SE,129,0.0,2.0,84,0.00,,SKC,0.00,VWS V14.01,2013-05-30 07:31:00,
2013-05-30 02:36:00,73.5,68.4,29.99,SE,129,2.0,4.0,84,0.00,,SKC,0.00,VWS V14.01,2013-05-30 07:36:00,
2013-05-30 02:41:00,73.4,68.3,29.99,SE,129,1.0,4.0,84,0.00,,SKC,0.00,VWS V14.01,2013-05-30 07:41:00,
2013-05-30 02:46:00,73.4,68.3,29.99,SE,129,1.0,5.0,84,0.00,,SKC,0.00,VWS V14.01,2013-05-30 07:46:00,
2013-05-30 02:51:00,73.4,68.3,29.98,SE,129,2.0,6.0,84,0.00,,SKC,0.00,VWS V14.01,2013-05-30 07:51:00,
2013-05-30 02:56:00,73.4,68.3,29.98,SE,129,3.0,6.0,84,0.00,,SKC,0.00,VWS V14.01,2013-05-30 07:56:00,
2013-05-30 03:00:00,73.5,68.4,29.98,SE,129,3.0,6.0,84,0.00,,SKC,0.00,VWS V14.01,2013-05-30 08:00:00,
2013-05-30 03:01:00,73.5,68.4,29.98,SE,129,1.0,4.0,84,0.00,,SKC,0.00,VWS V14.01,2013-05-30 08:01:00,
2013-05-30 03:06:00,73.5,68.4,29.98,SE,129,2.0,6.0,84,0.00,,SKC,0.00,VWS V14.01,2013-05-30 08:06:00,
2013-05-30 03:11:00,73.5,68.4,29.99,SE,129,1.0,6.0,84,0.00,,SKC,0.00,VWS V14.01,2013-05-30 08:11:00,
2013-05-30 03:16:00,73.5,68.4,29.99,SE,129,0.0,6.0,84,0.00,,SKC,0.00,VWS V14.01,2013-05-30 08:16:00,
2013-05-30 03:21:00,73.5,68.4,29.99,SE,129,2.0,6.0,84,0.00,,SKC,0.00,VWS V14.01,2013-05-30 08:21:00,
2013-05-30 03:26:00,73.5,68.7,29.99,SE,129,4.0,6.0,85,0.00,,SKC,0.00,VWS V14.01,2013-05-30 08:26:00,
2013-05-30 03:30:00,73.5,68.7,29.99,SE,129,0.0,6.0,85,0.00,,SKC,0.00,VWS V14.01,2013-05-30 08:30:00,
2013-05-30 03:31:00,73.5,68.7,29.99,SE,129,0.0,0.0,85,0.00,,SKC,0.00,VWS V14.01,2013-05-30 08:31:00,
2013-05-30 03:36:00,73.5,68.7,29.99,SE,129,1.0,1.0,85,0.00,,SKC,0.00,VWS V14.01,2013-05-30 08:36:00,
2013-05-30 03:41:00,73.5,68.7,29.99,SE,129,1.0,2.0,85,0.00,,SKC,0.00,VWS V14.01,2013-05-30 08:41:00,
2013-05-30 03:46:00,73.4,68.6,29.99,SE,129,1.0,2.0,85,0.00,,SKC,0.00,VWS V14.01,2013-05-30 08:46:00,
2013-05-30 03:51:00,73.4,68.6,29.99,SE,129,0.0,2.0,85,0.00,,SKC,0.00,VWS V14.01,2013-05-30 08:51:00,
2013-05-30 03:56:00,73.3,68.5,29.99,SE,129,0.0,2.0,85,0.00,,SKC,0.00,VWS V14.01,2013-05-30 08:56:00,
2013-05-30 04:00:00,73.3,68.2,29.99,SE,129,0.0,5.0,84,0.00,,SKC,0.00,VWS V14.01,2013-05-30 09:00:00,
2013-05-30 04:01:00,73.3,68.2,29.99,SE,129,1.0,1.0,84,0.00,,SKC,0.00,VWS V14.01,2013-05-30 09:01:00,
2013-05-30 04:06:00,73.3,68.2,30.00,SE,129,0.0,2.0,84,0.00,,SKC,0.00,VWS V14.01,2013-05-30 09:06:00,
2013-05-30 04:11:00,73.3,68.2,29.99,SE,129,1.0,2.0,84,0.00,,SKC,0.00,VWS V14.01,2013-05-30 09:11:00,
2013-05-30 04:16:00,73.4,68.3,29.99,SE,129,1.0,5.0,84,0.00,,SKC,0.00,VWS V14.01,2013-05-30 09:16:00,
2013-05-30 04:21:00,73.5,68.4,29.99,SE,129,0.0,5.0,84,0.00,,SKC,0.00,VWS V14.01,2013-05-30 09:21:00,
2013-05-30 04:26:00,73.5,68.4,29.99,SE,129,0.0,5.0,84,0.00,,SKC,0.00,VWS V14.01,2013-05-30 09:26:00,
2013-05-30 04:30:00,73.5,68.0,29.99,SE,129,2.0,8.0,83,0.00,,SKC,0.00,VWS V14.01,2013-05-30 09:30:00,
2013-05-30 04:31:00,73.6,68.1,29.99,SE,129,2.0,5.0,83,0.00,,SKC,0.00,VWS V14.01,2013-05-30 09:31:00,
2013-05-30 04:36:00,73.7,68.6,29.99,SE,129,4.0,6.0,84,0.00,,SKC,0.00,VWS V14.01,2013-05-30 09:36:00,
2013-05-30 04:41:00,74.0,68.9,29.99,SSE,152,6.0,8.0,84,0.00,,SKC,0.00,VWS V14.01,2013-05-30 09:41:00,
2013-05-30 04:46:00,74.2,69.4,29.99,SSE,149,6.0,8.0,85,0.00,,SKC,0.00,VWS V14.01,2013-05-30 09:46:00,
2013-05-30 04:51:00,74.5,70.0,30.00,SE,129,6.0,11.0,86,0.00,,SKC,0.00,VWS V14.01,2013-05-30 09:51:00,
2013-05-30 04:56:00,74.7,70.6,30.00,SE,142,1.0,11.0,87,0.00,,SKC,0.00,VWS V14.01,2013-05-30 09:56:00,
2013-05-30 05:00:00,74.8,70.7,30.00,SSE,150,2.0,11.0,87,0.00,,SKC,0.00,VWS V14.01,2013-05-30 10:00:00,
2013-05-30 05:01:00,74.8,70.7,30.00,South,173,6.0,9.0,87,0.00,,SKC,0.00,VWS V14.01,2013-05-30 10:01:00,
2013-05-30 05:06:00,74.9,70.8,30.00,SSE,148,9.0,9.0,87,0.00,,SKC,0.00,VWS V14.01,2013-05-30 10:06:00,
2013-05-30 05:11:00,75.0,71.2,30.00,SE,136,2.0,9.0,88,0.00,,SKC,0.00,VWS V14.01,2013-05-30 10:11:00,
2013-05-30 05:16:00,75.0,71.2,30.00,SE,144,6.0,9.0,88,0.00,,SKC,0.00,VWS V14.01,2013-05-30 10:16:00,
2013-05-30 05:21:00,75.0,71.2,30.00,SE,142,4.0,9.0,88,0.00,,SKC,0.00,VWS V14.01,2013-05-30 10:21:00,
2013-05-30 05:26:00,75.1,71.3,30.00,SSE,147,4.0,10.0,88,0.00,,SKC,0.00,VWS V14.01,2013-05-30 10:26:00,
2013-05-30 05:30:00,75.1,71.3,30.00,SE,143,5.0,10.0,88,0.00,,SKC,0.00,VWS V14.01,2013-05-30 10:30:00,
2013-05-30 05:31:00,75.1,71.3,30.00,SE,143,3.0,5.0,88,0.00,,SKC,0.00,VWS V14.01,2013-05-30 10:31:00,
2013-05-30 05:36:00,75.1,71.3,30.00,SSE,164,6.0,8.0,88,0.00,,SKC,0.00,VWS V14.01,2013-05-30 10:36:00,
2013-05-30 05:41:00,75.1,71.3,30.00,SE,136,1.0,8.0,88,0.00,,SKC,0.00,VWS V14.01,2013-05-30 10:41:00,
2013-05-30 05:46:00,75.1,71.3,30.00,SSE,159,6.0,8.0,88,0.00,,SKC,0.00,VWS V14.01,2013-05-30 10:46:00,
2013-05-30 05:51:00,75.1,71.3,30.01,SSE,164,4.0,8.0,88,0.00,,SKC,0.00,VWS V14.01,2013-05-30 10:51:00,
2013-05-30 05:56:00,75.2,71.4,30.01,SSE,150,1.0,8.0,88,0.00,,SKC,0.00,VWS V14.01,2013-05-30 10:56:00,
2013-05-30 06:00:00,75.2,71.4,30.01,SE,138,0.0,8.0,88,0.00,,SKC,0.00,VWS V14.01,2013-05-30 11:00:00,
2013-05-30 06:01:00,75.2,71.4,30.01,SE,138,4.0,5.0,88,0.00,,SKC,0.00,VWS V14.01,2013-05-30 11:01:00,
2013-05-30 06:06:00,75.3,71.5,30.01,SE,145,0.0,6.0,88,0.00,,SKC,0.00,VWS V14.01,2013-05-30 11:06:00,
2013-05-30 06:11:00,75.3,71.5,30.01,SE,146,2.0,8.0,88,0.00,,SKC,0.00,VWS V14.01,2013-05-30 11:11:00,
2013-05-30 06:16:00,75.5,71.7,30.02,SE,128,4.0,8.0,88,0.00,,SKC,0.00,VWS V14.01,2013-05-30 11:16:00,
2013-05-30 06:21:00,75.6,71.8,30.01,SE,128,4.0,8.0,88,0.00,,SKC,0.00,VWS V14.01,2013-05-30 11:21:00,
2013-05-30 06:26:00,75.5,71.7,30.02,SE,128,1.0,8.0,88,0.01,,SKC,0.01,VWS V14.01,2013-05-30 11:26:00,
2013-05-30 06:30:00,75.4,71.6,30.02,SE,144,5.0,8.0,88,0.01,,SKC,0.01,VWS V14.01,2013-05-30 11:30:00,
2013-05-30 06:31:00,75.4,71.6,30.02,SE,143,5.0,5.0,88,0.01,,SKC,0.01,VWS V14.01,2013-05-30 11:31:00,
2013-05-30 06:36:00,75.5,71.7,30.02,SE,146,4.0,9.0,88,0.01,,SKC,0.01,VWS V14.01,2013-05-30 11:36:00,
2013-05-30 06:41:00,75.6,71.8,30.02,SSE,150,3.0,9.0,88,0.01,,SKC,0.01,VWS V14.01,2013-05-30 11:41:00,
2013-05-30 06:46:00,75.8,72.0,30.02,East,86,4.0,10.0,88,0.01,,SKC,0.01,VWS V14.01,2013-05-30 11:46:00,
2013-05-30 06:51:00,75.9,72.1,30.03,ESE,105,6.0,11.0,88,0.01,,SKC,0.01,VWS V14.01,2013-05-30 11:51:00,
2013-05-30 06:56:00,76.1,72.3,30.03,SE,143,6.0,14.0,88,0.01,,SKC,0.01,VWS V14.01,2013-05-30 11:56:00,
2013-05-30 07:00:00,76.2,72.4,30.03,ESE,122,7.0,14.0,88,0.01,,SKC,0.01,VWS V14.01,2013-05-30 12:00:00,
2013-05-30 07:01:00,76.2,72.4,30.03,SE,142,8.0,9.0,88,0.01,,SKC,0.01,VWS V14.01,2013-05-30 12:01:00,
2013-05-30 07:06:00,76.4,72.6,30.03,SSE,163,5.0,10.0,88,0.01,,SKC,0.01,VWS V14.01,2013-05-30 12:06:00,
2013-05-30 07:11:00,76.8,72.6,30.04,SE,139,2.0,10.0,87,0.01,,SKC,0.01,VWS V14.01,2013-05-30 12:11:00,
2013-05-30 07:16:00,76.9,72.7,30.04,ESE,114,7.0,10.0,87,0.01,,SKC,0.01,VWS V14.01,2013-05-30 12:16:00,
2013-05-30 07:21:00,76.8,72.6,30.04,SE,142,2.0,11.0,87,0.01,,SKC,0.01,VWS V14.01,2013-05-30 12:21:00,
2013-05-30 07:26:00,76.8,72.6,30.03,SE,144,2.0,11.0,87,0.01,,SKC,0.01,VWS V14.01,2013-05-30 12:26:00,
2013-05-30 07:30:00,77.1,72.9,30.04,SE,127,4.0,13.0,87,0.01,,SKC,0.01,VWS V14.01,2013-05-30 12:30:00,
2013-05-30 07:31:00,77.1,72.9,30.04,SE,137,8.0,9.0,87,0.00,,SKC,0.01,VWS V14.01,2013-05-30 12:31:00,
2013-05-30 07:36:00,77.6,73.4,30.03,SE,127,8.0,13.0,87,0.00,,SKC,0.01,VWS V14.01,2013-05-30 12:36:00,
2013-05-30 07:41:00,78.0,73.5,30.03,SE,124,8.0,13.0,86,0.00,,SKC,0.01,VWS V14.01,2013-05-30 12:41:00,
2013-05-30 07:46:00,77.8,72.9,30.04,South,182,11.0,13.0,85,0.00,,SKC,0.01,VWS V14.01,2013-05-30 12:46:00,
2013-05-30 07:51:00,78.1,73.2,30.04,SE,142,12.0,16.0,85,0.00,,SKC,0.01,VWS V14.01,2013-05-30 12:51:00,
2013-05-30 07:56:00,78.2,73.0,30.04,SE,134,7.0,16.0,84,0.00,,SKC,0.01,VWS V14.01,2013-05-30 12:56:00,
2013-05-30 08:00:00,78.0,73.1,30.04,SSE,163,9.0,16.0,85,0.00,,SKC,0.01,VWS V14.01,2013-05-30 13:00:00,
2013-05-30 08:01:00,78.0,73.1,30.04,SE,146,9.0,9.0,85,0.00,,SKC,0.01,VWS V14.01,2013-05-30 13:01:00,
2013-05-30 08:06:00,78.0,73.1,30.04,SSE,148,8.0,11.0,85,0.00,,SKC,0.01,VWS V14.01,2013-05-30 13:06:00,
2013-05-30 08:11:00,78.1,72.9,30.04,SSE,150,11.0,16.0,84,0.00,,SKC,0.01,VWS V14.01,2013-05-30 13:11:00,
2013-05-30 08:16:00,78.7,73.5,30.04,SE,136,10.0,16.0,84,0.00,,SKC,0.01,VWS V14.01,2013-05-30 13:16:00,
2013-05-30 08:21:00,79.2,73.6,30.04,SSE,168,7.0,19.0,83,0.00,,SKC,0.01,VWS V14.01,2013-05-30 13:21:00,
2013-05-30 08:26:00,79.4,73.4,30.04,SE,142,6.0,19.0,82,0.00,,SKC,0.01,VWS V14.01,2013-05-30 13:26:00,
2013-05-30 08:30:00,79.4,73.4,30.04,SE,130,9.0,19.0,82,0.00,,SKC,0.01,VWS V14.01,2013-05-30 13:30:00,
2013-05-30 08:31:00,79.4,73.4,30.04,SSE,157,11.0,12.0,82,0.00,,SKC,0.01,VWS V14.01,2013-05-30 13:31:00,
2013-05-30 08:36:00,79.5,73.5,30.04,ESE,106,6.0,15.0,82,0.00,,SKC,0.01,VWS V14.01,2013-05-30 13:36:00,
2013-05-30 08:41:00,79.3,73.3,30.04,SSE,161,8.0,20.0,82,0.00,,SKC,0.01,VWS V14.01,2013-05-30 13:41:00,
2013-05-30 08:46:00,79.5,73.9,30.04,SSE,161,7.0,20.0,83,0.00,,SKC,0.01,VWS V14.01,2013-05-30 13:46:00,
2013-05-30 08:51:00,79.3,73.3,30.04,SE,126,12.0,20.0,82,0.00,,SKC,0.01,VWS V14.01,2013-05-30 13:51:00,
2013-05-30 08:56:00,78.8,73.2,30.04,SE,134,9.0,20.0,83,0.00,,SKC,0.01,VWS V14.01,2013-05-30 13:56:00,
2013-05-30 09:00:00,79.1,73.5,30.04,SSE,153,6.0,20.0,83,0.00,,SKC,0.01,VWS V14.01,2013-05-30 14:00:00,
2013-05-30 09:01:00,79.1,73.5,30.04,SE,124,9.0,11.0,83,0.00,,SKC,0.01,VWS V14.01,2013-05-30 14:01:00,
2013-05-30 09:06:00,79.8,73.8,30.04,SE,132,6.0,14.0,82,0.00,,SKC,0.01,VWS V14.01,2013-05-30 14:06:00,
2013-05-30 09:11:00,79.8,73.4,30.04,SSE,158,6.0,21.0,81,0.00,,SKC,0.01,VWS V14.01,2013-05-30 14:11:00,
2013-05-30 09:16:00,79.8,73.8,30.04,SSE,165,8.0,21.0,82,0.00,,SKC,0.01,VWS V14.01,2013-05-30 14:16:00,
2013-05-30 09:21:00,79.4,73.1,30.04,South,172,8.0,21.0,81,0.00,,SKC,0.01,VWS V14.01,2013-05-30 14:21:00,
2013-05-30 09:26:00,79.0,73.0,30.04,SE,143,14.0,21.0,82,0.00,,SKC,0.01,VWS V14.01,2013-05-30 14:26:00,
2013-05-30 09:30:00,78.9,73.3,30.05,SSE,154,7.0,21.0,83,0.00,,SKC,0.01,VWS V14.01,2013-05-30 14:30:00,
2013-05-30 09:31:00,78.9,73.3,30.05,SE,138,5.0,9.0,83,0.00,,SKC,0.01,VWS V14.01,2013-05-30 14:31:00,
2013-05-30 09:35:00,79.1,73.1,30.04,SE,134,7.0,16.0,82,0.00,,SKC,0.01,VWS V14.01,2013-05-30 14:35:00,
2013-05-30 09:40:00,79.6,73.3,30.04,SE,144,10.0,21.0,81,0.00,,SKC,0.01,VWS V14.01,2013-05-30 14:40:00,
2013-05-30 09:45:00,80.3,72.8,30.04,SSE,150,9.0,24.0,78,0.00,,SKC,0.01,VWS V14.01,2013-05-30 14:45:00,
2013-05-30 09:50:00,80.5,73.4,30.04,SE,138,19.0,24.0,79,0.00,,SKC,0.01,VWS V14.01,2013-05-30 14:50:00,
2013-05-30 09:55:00,80.6,73.1,30.04,ESE,121,9.0,24.0,78,0.00,,SKC,0.01,VWS V14.01,2013-05-30 14:55:00,
2013-05-30 10:00:00,80.4,72.9,30.04,SE,136,9.0,10.0,78,0.00,,SKC,0.01,VWS V14.01,2013-05-30 15:00:00,
2013-05-30 10:05:00,80.1,73.0,30.04,SE,140,13.0,20.0,79,0.00,,SKC,0.01,VWS V14.01,2013-05-30 15:05:00,
2013-05-30 10:10:00,80.4,72.9,30.04,ESE,121,13.0,28.0,78,0.00,,SKC,0.01,VWS V14.01,2013-05-30 15:10:00,
2013-05-30 10:15:00,80.7,72.8,30.04,SE,132,13.0,28.0,77,0.00,,SKC,0.01,VWS V14.01,2013-05-30 15:15:00,
2013-05-30 10:20:00,80.3,72.8,30.04,SE,126,14.0,28.0,78,0.00,,SKC,0.01,VWS V14.01,2013-05-30 15:20:00,
2013-05-30 10:25:00,80.9,73.4,30.04,SE,146,14.0,28.0,78,0.00,,SKC,0.01,VWS V14.01,2013-05-30 15:25:00,
2013-05-30 10:30:00,81.5,73.6,30.04,SE,144,18.0,20.0,77,0.00,,SKC,0.01,VWS V14.01,2013-05-30 15:30:00,
2013-05-30 10:35:00,81.5,73.2,30.04,SSE,150,9.0,20.0,76,0.00,,SKC,0.01,VWS V14.01,2013-05-30 15:35:00,
2013-05-30 10:40:00,81.0,72.7,30.04,SSE,148,12.0,23.0,76,0.00,,SKC,0.01,VWS V14.01,2013-05-30 15:40:00,
2013-05-30 10:45:00,80.8,72.9,30.05,SE,136,11.0,23.0,77,0.00,,SKC,0.01,VWS V14.01,2013-05-30 15:45:00,
2013-05-30 10:50:00,81.3,73.0,30.05,SE,135,12.0,23.0,76,0.00,,SKC,0.01,VWS V14.01,2013-05-30 15:50:00,
2013-05-30 10:55:00,81.4,72.7,30.05,SSE,147,9.0,23.0,75,0.00,,SKC,0.01,VWS V14.01,2013-05-30 15:55:00,
2013-05-30 11:00:00,81.0,72.7,30.05,SSE,149,8.0,23.0,76,0.00,,SKC,0.01,VWS V14.01,2013-05-30 16:00:00,
2013-05-30 11:05:00,80.8,72.9,30.06,SE,136,9.0,23.0,77,0.00,,SKC,0.01,VWS V14.01,2013-05-30 16:05:00,
2013-05-30 11:10:00,80.7,72.8,30.05,SE,129,12.0,23.0,77,0.00,,SKC,0.01,VWS V14.01,2013-05-30 16:10:00,
2013-05-30 11:15:00,80.6,73.1,30.05,SSE,148,7.0,23.0,78,0.00,,SKC,0.01,VWS V14.01,2013-05-30 16:15:00,
2013-05-30 11:23:00,80.5,72.6,30.05,SSE,152,16.0,16.0,77,0.00,,SKC,0.01,VWS V14.01,2013-05-30 16:23:00,
2013-05-30 11:28:00,80.6,72.7,30.05,SE,125,16.0,21.0,77,0.00,,SKC,0.01,VWS V14.01,2013-05-30 16:28:00,
2013-05-30 11:33:00,80.2,72.7,30.06,SSE,164,6.0,19.0,78,0.00,,SKC,0.01,VWS V14.01,2013-05-30 16:33:00,
2013-05-30 11:38:00,79.9,72.8,30.05,SE,141,11.0,21.0,79,0.00,,SKC,0.01,VWS V14.01,2013-05-30 16:38:00,
2013-05-30 11:43:00,80.5,73.4,30.05,SSE,150,6.0,21.0,79,0.00,,SKC,0.01,VWS V14.01,2013-05-30 16:43:00,
2013-05-30 11:48:00,80.7,73.2,30.05,South,169,11.0,21.0,78,0.00,,SKC,0.01,VWS V14.01,2013-05-30 16:48:00,
2013-05-30 11:53:00,80.4,73.3,30.05,SSE,164,15.0,21.0,79,0.00,,SKC,0.01,VWS V14.01,2013-05-30 16:53:00,
2013-05-30 11:58:00,80.0,72.9,30.05,ESE,111,13.0,21.0,79,0.00,,SKC,0.01,VWS V14.01,2013-05-30 16:58:00,
2013-05-30 12:03:00,79.8,72.7,30.05,ESE,114,12.0,18.0,79,0.00,,SKC,0.01,VWS V14.01,2013-05-30 17:03:00,
2013-05-30 12:08:00,80.4,72.9,30.05,ESE,121,16.0,21.0,78,0.00,,SKC,0.01,VWS V14.01,2013-05-30 17:08:00,
2013-05-30 12:13:00,80.0,72.9,30.04,SE,126,15.0,21.0,79,0.00,,SKC,0.01,VWS V14.01,2013-05-30 17:13:00,
2013-05-30 12:19:00,80.4,72.9,30.04,SSE,148,11.0,21.0,78,0.00,,SKC,0.01,VWS V14.01,2013-05-30 17:19:00,
2013-05-30 12:24:00,80.5,72.6,30.03,SSE,157,10.0,21.0,77,0.00,,SKC,0.01,VWS V14.01,2013-05-30 17:24:00,
2013-05-30 12:29:00,80.7,73.2,30.03,SE,142,6.0,21.0,78,0.00,,SKC,0.01,VWS V14.01,2013-05-30 17:29:00,
2013-05-30 12:34:00,80.7,72.8,30.03,SSE,155,16.0,21.0,77,0.00,,SKC,0.01,VWS V14.01,2013-05-30 17:34:00,
2013-05-30 12:39:00,81.3,73.0,30.03,SSE,167,15.0,23.0,76,0.00,,SKC,0.01,VWS V14.01,2013-05-30 17:39:00,
2013-05-30 12:44:00,82.0,72.9,30.03,SE,128,12.0,23.0,74,0.00,,SKC,0.01,VWS V14.01,2013-05-30 17:44:00,
2013-05-30 12:49:00,82.1,73.0,30.03,SE,142,16.0,23.0,74,0.00,,SKC,0.01,VWS V14.01,2013-05-30 17:49:00,
2013-05-30 12:54:00,82.4,71.6,30.03,SE,138,10.0,24.0,70,0.00,,SKC,0.01,VWS V14.01,2013-05-30 17:54:00,
2013-05-30 12:59:00,82.6,71.4,30.03,SE,132,9.0,24.0,69,0.00,,SKC,0.01,VWS V14.01,2013-05-30 17:59:00,
2013-05-30 13:04:00,82.7,71.5,30.03,SSE,151,7.0,16.0,69,0.00,,SKC,0.01,VWS V14.01,2013-05-30 18:04:00,
2013-05-30 13:09:00,83.1,71.9,30.03,SE,140,13.0,21.0,69,0.00,,SKC,0.01,VWS V14.01,2013-05-30 18:09:00,
2013-05-30 13:14:00,82.7,71.5,30.03,SE,146,7.0,24.0,69,0.00,,SKC,0.01,VWS V14.01,2013-05-30 18:14:00,
2013-05-30 13:19:00,82.8,72.0,30.03,South,178,9.0,24.0,70,0.00,,SKC,0.01,VWS V14.01,2013-05-30 18:19:00,
2013-05-30 13:24:00,82.6,72.2,30.03,South,184,12.0,24.0,71,0.00,,SKC,0.01,VWS V14.01,2013-05-30 18:24:00,
2013-05-30 13:29:00,82.8,72.4,30.03,SSE,153,19.0,24.0,71,0.00,,SKC,0.01,VWS V14.01,2013-05-30 18:29:00,
2013-05-30 13:34:00,82.5,71.7,30.03,SSE,159,5.0,15.0,70,0.00,,SKC,0.01,VWS V14.01,2013-05-30 18:34:00,
2013-05-30 13:39:00,82.5,72.2,30.03,SSE,161,6.0,24.0,71,0.00,,SKC,0.01,VWS V14.01,2013-05-30 18:39:00,
2013-05-30 13:44:00,82.6,72.2,30.03,SSE,167,8.0,24.0,71,0.00,,SKC,0.01,VWS V14.01,2013-05-30 18:44:00,
2013-05-30 13:49:00,81.7,71.4,30.03,SSE,161,13.0,24.0,71,0.00,,SKC,0.01,VWS V14.01,2013-05-30 18:49:00,
2013-05-30 13:54:00,81.8,71.9,30.03,SSE,162,10.0,24.0,72,0.00,,SKC,0.01,VWS V14.01,2013-05-30 18:54:00,
2013-05-30 13:59:00,82.7,71.9,30.02,South,169,13.0,28.0,70,0.00,,SKC,0.01,VWS V14.01,2013-05-30 18:59:00,
2013-05-30 14:04:00,82.9,72.5,30.02,SE,130,11.0,23.0,71,0.00,,SKC,0.01,VWS V14.01,2013-05-30 19:04:00,
2013-05-30 14:09:00,82.3,71.5,30.02,SE,146,18.0,23.0,70,0.00,,SKC,0.01,VWS V14.01,2013-05-30 19:09:00,
2013-05-30 14:14:00,82.0,71.7,30.02,SE,124,16.0,23.0,71,0.00,,SKC,0.01,VWS V14.01,2013-05-30 19:14:00,
2013-05-30 14:19:00,82.2,71.9,30.02,SE,134,8.0,23.0,71,0.00,,SKC,0.01,VWS V14.01,2013-05-30 19:19:00,
2013-05-30 14:24:00,82.1,72.2,30.02,East,101,12.0,23.0,72,0.00,,SKC,0.01,VWS V14.01,2013-05-30 19:24:00,
2013-05-30 14:29:00,82.2,72.7,30.02,ESE,115,7.0,23.0,73,0.00,,SKC,0.01,VWS V14.01,2013-05-30 19:29:00,
2013-05-30 14:34:00,82.1,72.6,30.02,SE,140,14.0,23.0,73,0.00,,SKC,0.01,VWS V14.01,2013-05-30 19:34:00,
2013-05-30 14:39:00,82.1,73.0,30.01,SSE,162,12.0,23.0,74,0.00,,SKC,0.01,VWS V14.01,2013-05-30 19:39:00,
2013-05-30 14:44:00,82.8,72.9,30.01,SSE,161,12.0,23.0,72,0.00,,SKC,0.01,VWS V14.01,2013-05-30 19:44:00,
2013-05-30 14:49:00,82.7,72.3,30.01,SSE,161,16.0,23.0,71,0.00,,SKC,0.01,VWS V14.01,2013-05-30 19:49:00,
2013-05-30 14:54:00,82.1,72.6,30.01,SE,128,14.0,23.0,73,0.00,,SKC,0.01,VWS V14.01,2013-05-30 19:54:00,
2013-05-30 14:59:00,82.1,72.6,30.01,SE,138,7.0,23.0,73,0.00,,SKC,0.01,VWS V14.01,2013-05-30 19:59:00,
2013-05-30 15:04:00,81.5,72.4,30.01,SSE,147,10.0,23.0,74,0.00,,SKC,0.01,VWS V14.01,2013-05-30 20:04:00,
2013-05-30 15:09:00,82.4,73.3,30.00,SSE,156,9.0,23.0,74,0.00,,SKC,0.01,VWS V14.01,2013-05-30 20:09:00,
2013-05-30 15:14:00,83.0,73.1,30.00,SE,146,9.0,23.0,72,0.00,,SKC,0.01,VWS V14.01,2013-05-30 20:14:00,
2013-05-30 15:19:00,82.1,72.6,30.00,SE,137,16.0,23.0,73,0.00,,SKC,0.01,VWS V14.01,2013-05-30 20:19:00,
2013-05-30 15:24:00,81.9,72.0,30.00,ESE,121,14.0,23.0,72,0.00,,SKC,0.01,VWS V14.01,2013-05-30 20:24:00,
2013-05-30 15:29:00,82.4,72.5,30.00,SSE,149,11.0,23.0,72,0.00,,SKC,0.01,VWS V14.01,2013-05-30 20:29:00,
2013-05-30 15:34:00,82.5,72.2,30.00,SSE,165,9.0,21.0,71,0.00,,SKC,0.01,VWS V14.01,2013-05-30 20:34:00,
2013-05-30 15:39:00,82.7,72.8,30.00,ESE,119,12.0,23.0,72,0.00,,SKC,0.01,VWS V14.01,2013-05-30 20:39:00,
2013-05-30 15:44:00,82.5,73.0,30.00,SSE,156,6.0,24.0,73,0.00,,SKC,0.01,VWS V14.01,2013-05-30 20:44:00,
2013-05-30 15:49:00,82.3,72.8,30.00,SE,124,15.0,24.0,73,0.00,,SKC,0.01,VWS V14.01,2013-05-30 20:49:00,
2013-05-30 15:54:00,81.6,72.5,30.00,SSE,152,13.0,24.0,74,0.00,,SKC,0.01,VWS V14.01,2013-05-30 20:54:00,
2013-05-30 15:59:00,82.1,72.6,30.00,SSE,150,5.0,24.0,73,0.00,,SKC,0.01,VWS V14.01,2013-05-30 20:59:00,
2013-05-30 16:04:00,82.3,72.8,30.00,ESE,121,14.0,21.0,73,0.00,,SKC,0.01,VWS V14.01,2013-05-30 21:04:00,
2013-05-30 16:09:00,82.2,72.7,30.00,SE,144,11.0,24.0,73,0.00,,SKC,0.01,VWS V14.01,2013-05-30 21:09:00,
2013-05-30 16:14:00,82.2,73.1,30.00,South,182,10.0,24.0,74,0.00,,SKC,0.01,VWS V14.01,2013-05-30 21:14:00,
2013-05-30 16:19:00,82.3,72.8,30.00,ESE,120,16.0,24.0,73,0.00,,SKC,0.01,VWS V14.01,2013-05-30 21:19:00,
2013-05-30 16:24:00,81.8,72.7,30.00,SSE,161,11.0,24.0,74,0.00,,SKC,0.01,VWS V14.01,2013-05-30 21:24:00,
2013-05-30 16:29:00,81.2,72.9,30.00,South,179,9.0,24.0,76,0.00,,SKC,0.01,VWS V14.01,2013-05-30 21:29:00,
2013-05-30 16:34:00,81.5,72.8,30.00,SSE,167,9.0,18.0,75,0.00,,SKC,0.01,VWS V14.01,2013-05-30 21:34:00,
2013-05-30 16:39:00,81.1,72.8,30.00,SE,130,5.0,18.0,76,0.00,,SKC,0.01,VWS V14.01,2013-05-30 21:39:00,
2013-05-30 16:44:00,81.1,72.8,30.00,SE,130,5.0,18.0,76,0.00,,SKC,0.01,VWS V14.01,2013-05-30 21:44:00,
2013-05-30 16:49:00,81.3,73.0,30.00,ESE,123,14.0,18.0,76,0.00,,SKC,0.01,VWS V14.01,2013-05-30 21:49:00,
2013-05-30 16:54:00,81.3,73.0,30.00,ESE,123,14.0,18.0,76,0.00,,SKC,0.01,VWS V14.01,2013-05-30 21:54:00,
2013-05-30 16:59:00,81.3,73.0,30.00,ESE,123,14.0,18.0,76,0.00,,SKC,0.01,VWS V14.01,2013-05-30 21:59:00,
2013-05-30 17:04:00,81.3,73.0,29.99,ESE,123,14.0,14.0,76,0.00,,SKC,0.01,VWS V14.01,2013-05-30 22:04:00,
2013-05-30 17:09:00,81.3,73.0,29.99,ESE,123,14.0,14.0,76,0.00,,SKC,0.01,VWS V14.01,2013-05-30 22:09:00,
2013-05-30 17:14:00,81.3,73.0,29.99,ESE,123,14.0,14.0,76,0.00,,SKC,0.01,VWS V14.01,2013-05-30 22:14:00,
2013-05-30 17:19:00,81.3,73.0,29.99,ESE,123,14.0,14.0,76,0.00,,SKC,0.01,VWS V14.01,2013-05-30 22:19:00,
2013-05-30 17:24:00,81.3,73.0,29.99,ESE,123,14.0,14.0,76,0.00,,SKC,0.01,VWS V14.01,2013-05-30 22:24:00,
2013-05-30 17:29:00,81.3,73.0,29.99,ESE,123,14.0,14.0,76,0.00,,SKC,0.01,VWS V14.01,2013-05-30 22:29:00,
2013-05-30 17:34:00,81.3,73.0,29.99,ESE,123,14.0,14.0,76,0.00,,SKC,0.01,VWS V14.01,2013-05-30 22:34:00,
2013-05-30 17:39:00,81.3,73.0,29.99,ESE,123,14.0,14.0,76,0.00,,SKC,0.01,VWS V14.01,2013-05-30 22:39:00,
2013-05-30 17:44:00,81.3,73.0,29.99,ESE,123,14.0,14.0,76,0.00,,SKC,0.01,VWS V14.01,2013-05-30 22:44:00,
2013-05-30 17:49:00,80.3,72.8,29.99,SSE,149,12.0,18.0,78,0.00,,SKC,0.01,VWS V14.01,2013-05-30 22:49:00,
2013-05-30 17:54:00,80.1,72.2,29.99,SE,140,10.0,20.0,77,0.00,,SKC,0.01,VWS V14.01,2013-05-30 22:54:00,
2013-05-30 17:59:00,79.8,72.7,29.99,ESE,118,8.0,20.0,79,0.00,,SKC,0.01,VWS V14.01,2013-05-30 22:59:00,
2013-05-30 18:04:00,79.5,72.0,29.99,SE,140,13.0,21.0,78,0.00,,SKC,0.01,VWS V14.01,2013-05-30 23:04:00,
2013-05-30 18:09:00,79.4,72.3,29.99,SSE,157,11.0,21.0,79,0.00,,SKC,0.01,VWS V14.01,2013-05-30 23:09:00,
2013-05-30 18:14:00,79.4,72.3,29.99,SE,136,9.0,21.0,79,0.00,,SKC,0.01,VWS V14.01,2013-05-30 23:14:00,
2013-05-30 18:19:00,79.5,72.4,29.99,SSE,156,14.0,21.0,79,0.00,,SKC,0.01,VWS V14.01,2013-05-30 23:19:00,
2013-05-30 18:24:00,79.6,72.5,29.99,SE,125,18.0,21.0,79,0.00,,SKC,0.01,VWS V14.01,2013-05-30 23:24:00,
2013-05-30 18:29:00,79.5,72.4,29.98,SE,146,13.0,21.0,79,0.00,,SKC,0.01,VWS V14.01,2013-05-30 23:29:00,
2013-05-30 18:34:00,79.4,72.3,29.98,SSE,151,4.0,15.0,79,0.00,,SKC,0.01,VWS V14.01,2013-05-30 23:34:00,
2013-05-30 18:39:00,79.4,72.7,29.98,SE,141,7.0,16.0,80,0.00,,SKC,0.01,VWS V14.01,2013-05-30 23:39:00,
2013-05-30 18:44:00,79.4,72.7,29.98,SE,130,11.0,16.0,80,0.00,,SKC,0.01,VWS V14.01,2013-05-30 23:44:00,
2013-05-30 18:49:00,79.2,72.5,29.99,ESE,123,6.0,16.0,80,0.00,,SKC,0.01,VWS V14.01,2013-05-30 23:49:00,
2013-05-30 18:54:00,79.3,72.6,29.99,SE,132,10.0,16.0,80,0.00,,SKC,0.01,VWS V14.01,2013-05-30 23:54:00,
2013-05-30 18:59:00,79.1,72.4,29.99,South,178,10.0,16.0,80,0.00,,SKC,0.01,VWS V14.01,2013-05-30 23:59:00,
2013-05-30 19:04:00,78.7,72.4,29.99,ESE,123,11.0,16.0,81,0.00,,SKC,0.01,VWS V14.01,2013-05-31 00:04:00,
2013-05-30 19:09:00,78.5,72.6,29.99,SSE,153,10.0,16.0,82,0.00,,SKC,0.01,VWS V14.01,2013-05-31 00:09:00,
2013-05-30 19:14:00,78.5,72.2,29.99,ESE,118,9.0,20.0,81,0.00,,SKC,0.01,VWS V14.01,2013-05-31 00:14:00,
2013-05-30 19:19:00,78.4,72.4,29.99,South,190,6.0,20.0,82,0.00,,SKC,0.01,VWS V14.01,2013-05-31 00:19:00,
2013-05-30 19:24:00,78.2,72.3,29.99,SE,135,10.0,20.0,82,0.00,,SKC,0.01,VWS V14.01,2013-05-31 00:24:00,
2013-05-30 19:29:00,78.1,72.2,29.99,SSE,157,9.0,20.0,82,0.00,,SKC,0.01,VWS V14.01,2013-05-31 00:29:00,
2013-05-30 19:34:00,77.9,72.0,30.00,SE,146,3.0,13.0,82,0.00,,SKC,0.01,VWS V14.01,2013-05-31 00:34:00,
2013-05-30 19:39:00,77.8,71.9,30.00,South,169,6.0,13.0,82,0.00,,SKC,0.01,VWS V14.01,2013-05-31 00:39:00,
2013-05-30 19:44:00,77.5,71.6,30.00,SE,131,8.0,13.0,82,0.00,,SKC,0.01,VWS V14.01,2013-05-31 00:44:00,
2013-05-30 19:49:00,77.4,71.5,30.00,SSE,155,6.0,13.0,82,0.00,,SKC,0.01,VWS V14.01,2013-05-31 00:49:00,
2013-05-30 19:54:00,77.3,71.4,29.99,SSE,155,9.0,13.0,82,0.00,,SKC,0.01,VWS V14.01,2013-05-31 00:54:00,
2013-05-30 19:59:00,77.2,71.6,29.99,SE,146,8.0,13.0,83,0.00,,SKC,0.01,VWS V14.01,2013-05-31 00:59:00,
2013-05-30 20:04:00,77.1,71.5,29.99,South,169,5.0,9.0,83,0.00,,SKC,0.01,VWS V14.01,2013-05-31 01:04:00,
2013-05-30 20:09:00,77.0,71.4,29.99,SSE,150,5.0,10.0,83,0.00,,SKC,0.01,VWS V14.01,2013-05-31 01:09:00,
2013-05-30 20:14:00,76.9,71.3,29.99,SSE,150,6.0,10.0,83,0.00,,SKC,0.01,VWS V14.01,2013-05-31 01:14:00,
2013-05-30 20:19:00,76.8,71.2,29.99,SE,139,8.0,10.0,83,0.00,,SKC,0.01,VWS V14.01,2013-05-31 01:19:00,
2013-05-30 20:24:00,76.7,71.2,29.99,SSE,156,1.0,10.0,83,0.00,,SKC,0.01,VWS V14.01,2013-05-31 01:24:00,
2013-05-30 20:29:00,76.6,71.4,30.00,SSE,155,7.0,10.0,84,0.00,,SKC,0.01,VWS V14.01,2013-05-31 01:29:00,
2013-05-30 20:34:00,76.6,71.4,30.00,SE,125,4.0,9.0,84,0.00,,SKC,0.01,VWS V14.01,2013-05-31 01:34:00,
2013-05-30 20:39:00,76.5,71.3,30.00,SE,144,6.0,9.0,84,0.00,,SKC,0.01,VWS V14.01,2013-05-31 01:39:00,
2013-05-30 20:44:00,76.5,71.3,30.00,SE,132,4.0,12.0,84,0.00,,SKC,0.01,VWS V14.01,2013-05-31 01:44:00,
2013-05-30 20:49:00,76.4,71.2,30.00,SE,132,2.0,12.0,84,0.00,,SKC,0.01,VWS V14.01,2013-05-31 01:49:00,
2013-05-30 20:54:00,76.4,71.6,30.00,SE,130,1.0,12.0,85,0.00,,SKC,0.01,VWS V14.01,2013-05-31 01:54:00,
2013-05-30 20:59:00,76.3,71.5,30.00,SE,130,6.0,12.0,85,0.00,,SKC,0.01,VWS V14.01,2013-05-31 01:59:00,
2013-05-30 21:04:00,76.2,71.4,30.00,SE,134,5.0,7.0,85,0.00,,SKC,0.01,VWS V14.01,2013-05-31 02:04:00,
2013-05-30 21:09:00,76.2,71.7,30.00,SSE,149,4.0,9.0,86,0.00,,SKC,0.01,VWS V14.01,2013-05-31 02:09:00,
2013-05-30 21:14:00,76.2,71.7,30.00,SSE,149,0.0,9.0,86,0.00,,SKC,0.01,VWS V14.01,2013-05-31 02:14:00,
2013-05-30 21:19:00,76.1,71.6,30.00,SSE,149,6.0,9.0,86,0.00,,SKC,0.01,VWS V14.01,2013-05-31 02:19:00,
2013-05-30 21:24:00,76.1,71.6,30.00,SSE,150,6.0,9.0,86,0.00,,SKC,0.01,VWS V14.01,2013-05-31 02:24:00,
2013-05-30 21:29:00,76.0,71.5,30.00,SSE,151,7.0,9.0,86,0.00,,SKC,0.01,VWS V14.01,2013-05-31 02:29:00,
2013-05-30 21:34:00,75.9,71.4,30.00,SSE,147,5.0,9.0,86,0.00,,SKC,0.01,VWS V14.01,2013-05-31 02:34:00,
2013-05-30 21:39:00,75.9,71.8,30.00,SSE,147,5.0,9.0,87,0.00,,SKC,0.01,VWS V14.01,2013-05-31 02:39:00,
2013-05-30 21:44:00,75.9,71.8,30.00,SE,132,5.0,9.0,87,0.00,,SKC,0.01,VWS V14.01,2013-05-31 02:44:00,
2013-05-30 21:49:00,76.0,71.5,30.01,SE,144,0.0,9.0,86,0.00,,SKC,0.01,VWS V14.01,2013-05-31 02:49:00,
2013-05-30 21:54:00,76.0,71.5,30.01,SSE,150,5.0,9.0,86,0.00,,SKC,0.01,VWS V14.01,2013-05-31 02:54:00,
2013-05-30 21:59:00,76.0,71.5,30.01,SSE,150,2.0,9.0,86,0.00,,SKC,0.01,VWS V14.01,2013-05-31 02:59:00,
2013-05-30 22:04:00,76.0,71.5,30.01,SSE,153,2.0,7.0,86,0.00,,SKC,0.01,VWS V14.01,2013-05-31 03:04:00,
2013-05-30 22:09:00,76.0,71.5,30.02,SSE,153,2.0,7.0,86,0.00,,SKC,0.01,VWS V14.01,2013-05-31 03:09:00,
2013-05-30 22:14:00,75.9,71.4,30.01,SSE,153,5.0,7.0,86,0.00,,SKC,0.01,VWS V14.01,2013-05-31 03:14:00,
2013-05-30 22:19:00,75.8,71.7,30.02,SSE,153,4.0,7.0,87,0.00,,SKC,0.01,VWS V14.01,2013-05-31 03:19:00,
2013-05-30 22:24:00,75.8,71.7,30.02,SSE,153,3.0,7.0,87,0.00,,SKC,0.01,VWS V14.01,2013-05-31 03:24:00,
2013-05-30 22:29:00,75.8,71.7,30.02,SSE,153,1.0,7.0,87,0.00,,SKC,0.01,VWS V14.01,2013-05-31 03:29:00,
2013-05-30 22:34:00,75.7,71.6,30.02,SSE,153,1.0,4.0,87,0.00,,SKC,0.01,VWS V14.01,2013-05-31 03:34:00,
2013-05-30 22:39:00,75.7,71.6,30.01,SSE,153,0.0,6.0,87,0.00,,SKC,0.01,VWS V14.01,2013-05-31 03:39:00,
2013-05-30 22:44:00,75.7,71.6,30.02,SSE,153,1.0,7.0,87,0.00,,SKC,0.01,VWS V14.01,2013-05-31 03:44:00,
2013-05-30 22:49:00,75.7,71.2,30.02,SSE,153,4.0,7.0,86,0.00,,SKC,0.01,VWS V14.01,2013-05-31 03:49:00,
2013-05-30 22:54:00,75.7,71.6,30.02,SSE,153,5.0,8.0,87,0.00,,SKC,0.01,VWS V14.01,2013-05-31 03:54:00,
2013-05-30 22:59:00,75.7,71.6,30.02,SSE,153,3.0,8.0,87,0.00,,SKC,0.01,VWS V14.01,2013-05-31 03:59:00,
2013-05-30 23:01:00,75.7,71.6,30.02,SSE,153,4.0,6.0,87,0.00,,SKC,0.01,VWS V14.01,2013-05-31 04:01:00,
2013-05-30 23:06:00,75.7,71.6,30.02,SSE,153,2.0,6.0,87,0.00,,SKC,0.01,VWS V14.01,2013-05-31 04:06:00,
2013-05-30 23:11:00,75.7,71.6,30.02,SSE,153,2.0,7.0,87,0.00,,SKC,0.01,VWS V14.01,2013-05-31 04:11:00,
2013-05-30 23:16:00,75.6,71.5,30.03,SSE,153,1.0,7.0,87,0.00,,SKC,0.01,VWS V14.01,2013-05-31 04:16:00,
2013-05-30 23:21:00,75.5,71.4,30.03,SSE,153,1.0,7.0,87,0.00,,SKC,0.01,VWS V14.01,2013-05-31 04:21:00,
2013-05-30 23:26:00,75.5,71.4,30.03,SSE,153,5.0,7.0,87,0.00,,SKC,0.01,VWS V14.01,2013-05-31 04:26:00,
2013-05-30 23:31:00,75.6,71.5,30.03,SSE,153,4.0,5.0,87,0.00,,SKC,0.01,VWS V14.01,2013-05-31 04:31:00,
2013-05-30 23:36:00,75.6,71.5,30.03,SSE,153,2.0,6.0,87,0.00,,SKC,0.01,VWS V14.01,2013-05-31 04:36:00,
2013-05-30 23:41:00,75.6,71.5,30.03,SSE,153,8.0,8.0,87,0.00,,SKC,0.01,VWS V14.01,2013-05-31 04:41:00,
2013-05-30 23:46:00,75.6,71.5,30.03,SSE,153,1.0,8.0,87,0.00,,SKC,0.01,VWS V14.01,2013-05-31 04:46:00,
2013-05-30 23:51:00,75.6,71.5,30.03,SSE,153,4.0,8.0,87,0.00,,SKC,0.01,VWS V14.01,2013-05-31 04:51:00,
2013-05-30 23:56:00,75.7,71.6,30.03,SSE,149,2.0,8.0,87,0.00,,SKC,0.01,VWS V14.01,2013-05-31 04:56:00,